Tillbaka till svenska Fidonet
English   Information   Debug  
FILM   0/18
FNEWS_PUBLISH   4178
FN_SYSOP   41525
FN_SYSOP_OLD1   71952
FTP_FIDO   0/2
FTSC_PUBLIC   0/13569
FUNNY   0/4886
GENEALOGY.EUR   0/71
GET_INFO   105
GOLDED   0/408
HAM   0/16052
HOLYSMOKE   0/6791
HOT_SITES   0/1
HTMLEDIT   0/71
HUB203   466
HUB_100   264
HUB_400   39
HUMOR   0/29
IC   0/2851
INTERNET   0/424
INTERUSER   0/3
IP_CONNECT   719
JAMNNTPD   0/233
JAMTLAND   0/47
KATTY_KORNER   0/41
LAN   0/16
LINUX-USER   0/19
LINUXHELP   0/1155
LINUX   0/22010
LINUX_BBS   0/957
mail   18.68
mail_fore_ok   249
MENSA   0/341
MODERATOR   0/102
MONTE   0/992
MOSCOW_OKLAHOMA   0/1245
MUFFIN   0/783
MUSIC   0/321
N203_STAT   898
N203_SYSCHAT   313
NET203   321
NET204   69
NET_DEV   0/10
NORD.ADMIN   0/101
NORD.CHAT   0/2572
NORD.FIDONET   189
NORD.HARDWARE   0/28
NORD.KULTUR   0/114
NORD.PROG   0/32
NORD.SOFTWARE   0/88
NORD.TEKNIK   0/58
NORD   0/453
OCCULT_CHAT   0/93
OS2BBS   0/787
OS2DOSBBS   0/580
OS2HW   0/42
OS2INET   0/37
OS2LAN   0/134
OS2PROG   0/36
OS2REXX   0/113
OS2USER-L   207
OS2   0/4784
OSDEBATE   0/18996
PASCAL   0/490
PERL   0/457
PHP   0/45
POINTS   0/405
POLITICS   0/29554
POL_INC   0/14731
PSION   103
R20_ADMIN   1117
R20_AMATORRADIO   0/2
R20_BEST_OF_FIDONET   13
R20_CHAT   0/893
R20_DEPP   0/3
R20_DEV   399
R20_ECHO2   1379
R20_ECHOPRES   0/35
R20_ESTAT   0/719
R20_FIDONETPROG...
...RAM.MYPOINT
  0/2
R20_FIDONETPROGRAM   0/22
R20_FIDONET   0/248
R20_FILEFIND   0/24
R20_FILEFOUND   0/22
R20_HIFI   0/3
R20_INFO2   2735
R20_INTERNET   0/12940
R20_INTRESSE   0/60
R20_INTR_KOM   0/99
R20_KANDIDAT.CHAT   42
R20_KANDIDAT   28
R20_KOM_DEV   112
R20_KONTROLL   0/13050
R20_KORSET   0/18
R20_LOKALTRAFIK   0/24
R20_MODERATOR   0/1852
R20_NC   76
R20_NET200   245
R20_NETWORK.OTH...
...ERNETS
  0/13
R20_OPERATIVSYS...
...TEM.LINUX
  0/44
R20_PROGRAMVAROR   0/1
R20_REC2NEC   534
R20_SFOSM   0/340
R20_SF   0/108
R20_SPRAK.ENGLISH   0/1
R20_SQUISH   107
R20_TEST   2
R20_WORST_OF_FIDONET   12
RAR   0/9
RA_MULTI   106
RA_UTIL   0/162
REGCON.EUR   0/2055
REGCON   0/13
SCIENCE   0/1206
SF   0/239
SHAREWARE_SUPPORT   0/5146
SHAREWRE   0/14
SIMPSONS   0/169
STATS_OLD1   0/2539.065
STATS_OLD2   0/2530
STATS_OLD3   0/2395.095
STATS_OLD4   0/1692.25
SURVIVOR   0/495
SYSOPS_CORNER   0/3
SYSOP   0/84
TAGLINES   0/112
TEAMOS2   0/4530
TECH   0/2617
TEST.444   0/105
TRAPDOOR   0/19
TREK   0/755
TUB   0/290
UFO   0/40
UNIX   0/1316
USA_EURLINK   0/102
USR_MODEMS   0/1
VATICAN   0/2740
VIETNAM_VETS   0/14
VIRUS   0/378
VIRUS_INFO   0/201
VISUAL_BASIC   0/473
WHITEHOUSE   0/5187
WIN2000   0/101
WIN32   0/30
WIN95   0/4276
WIN95_OLD1   0/70272
WINDOWS   0/1517
WWB_SYSOP   0/419
WWB_TECH   0/810
ZCC-PUBLIC   0/1
ZEC   4

 
4DOS   0/134
ABORTION   0/7
ALASKA_CHAT   0/506
ALLFIX_FILE   0/1313
ALLFIX_FILE_OLD1   0/7997
ALT_DOS   0/152
AMATEUR_RADIO   0/1039
AMIGASALE   0/14
AMIGA   0/331
AMIGA_INT   0/1
AMIGA_PROG   0/20
AMIGA_SYSOP   0/26
ANIME   0/15
ARGUS   0/924
ASCII_ART   0/340
ASIAN_LINK   0/651
ASTRONOMY   0/417
AUDIO   0/92
AUTOMOBILE_RACING   0/105
BABYLON5   0/17862
BAG   135
BATPOWER   0/361
BBBS.ENGLISH   0/382
BBSLAW   0/109
BBS_ADS   0/5290
BBS_INTERNET   0/507
BIBLE   0/3563
BINKD   0/1119
BINKLEY   0/215
BLUEWAVE   0/2173
CABLE_MODEMS   0/25
CBM   0/46
CDRECORD   0/66
CDROM   0/20
CLASSIC_COMPUTER   0/378
COMICS   0/15
CONSPRCY   0/899
COOKING   28117
COOKING_OLD1   0/24719
COOKING_OLD2   0/40862
COOKING_OLD3   0/37489
COOKING_OLD4   0/35496
COOKING_OLD5   9370
C_ECHO   0/189
C_PLUSPLUS   0/31
DIRTY_DOZEN   0/201
DOORGAMES   0/2006
DOS_INTERNET   0/196
duplikat   6000
ECHOLIST   0/18295
EC_SUPPORT   0/318
ELECTRONICS   0/359
ELEKTRONIK.GER   1534
ENET.LINGUISTIC   0/13
ENET.POLITICS   0/4
ENET.SOFT   0/11701
ENET.SYSOP   33793
ENET.TALKS   0/32
ENGLISH_TUTOR   0/2000
EVOLUTION   0/1335
FDECHO   0/217
FDN_ANNOUNCE   0/7068
FIDONEWS   23490
FIDONEWS_OLD1   0/49742
FIDONEWS_OLD2   0/35949
FIDONEWS_OLD3   0/30874
FIDONEWS_OLD4   0/37224
FIDO_SYSOP   12841
FIDO_UTIL   0/180
FILEFIND   0/209
FILEGATE   0/212
Möte HAM, 16052 texter
 lista första sista föregående nästa
Text 2717, 745 rader
Skriven 2009-01-08 20:30:27 av Amsat List (1:323/120.0)
Ärende: [keps]  orb08008.amsa
=============================
[keps]  orb08008.amsa

Return-Path: <keps-bounces@amsat.org>
X-Rcpt: craig.healy@chowda.com
X-UIDL: 1231464633.122

SB KEPS @ AMSAT  $ORB09008.O
Orbital Elements  09008.OSCAR

HR AMSAT ORBITAL ELEMENTS FOR OSCAR SATELLITES
FROM WA5QGD FORT WORTH,TX January 8, 2009
Send Subscribe/unsubscribe to KEPS at 
http://www.amsat.org/mailman/listinfo/keps
BID: ORB09008.O
TO ALL RADIO AMATEURS BT

Satellite: AO-07
Catalog number: 07530
Epoch time:      09006.95961729
Element set:    0373
Inclination:      101.4447 deg
RA of node:       037.4581 deg
Eccentricity:    0.0011897
Arg of perigee:   223.7812 deg
Mean anomaly:     136.2316 deg
Mean motion:   12.53575070 rev/day
Decay rate:       -2.7e-07 rev/day^2
Epoch rev:           56251
Checksum:              295

Satellite: AO-10
Catalog number: 14129
Epoch time:      09005.60011086
Element set:     605
Inclination:      026.0280 deg
RA of node:       177.7445 deg
Eccentricity:    0.5962495
Arg of perigee:   187.3956 deg
Mean anomaly:     156.7605 deg
Mean motion:   02.05870582 rev/day
Decay rate:       -1.9e-07 rev/day^2
Epoch rev:           19227
Checksum:              307

Satellite: UO-11
Catalog number: 14781
Epoch time:      09008.55873766
Element set:     856
Inclination:      098.1304 deg
RA of node:       051.3810 deg
Eccentricity:    0.0009851
Arg of perigee:   128.0010 deg
Mean anomaly:     232.2147 deg
Mean motion:   14.79688934 rev/day
Decay rate:       2.58e-06 rev/day^2
Epoch rev:           33422
Checksum:              303

Satellite: RS-15
Catalog number: 23439
Epoch time:      09006.91589098
Element set:    0187
Inclination:      064.8125 deg
RA of node:       165.6032 deg
Eccentricity:    0.0145950
Arg of perigee:   083.0728 deg
Mean anomaly:     278.6772 deg
Mean motion:   11.27553556 rev/day
Decay rate:       -3.9e-07 rev/day^2
Epoch rev:           57793
Checksum:              342

Satellite: FO-29
Catalog number: 24278
Epoch time:      09008.85811968
Element set:     946
Inclination:      098.5769 deg
RA of node:       264.1059 deg
Eccentricity:    0.0351119
Arg of perigee:   043.1880 deg
Mean anomaly:     319.6234 deg
Mean motion:   13.52941274 rev/day
Decay rate:      -1.02e-06 rev/day^2
Epoch rev:           61220
Checksum:              322

Satellite: SO-33
Catalog number: 25509
Epoch time:      09007.99168992
Element set:     362
Inclination:      031.4325 deg
RA of node:       238.3166 deg
Eccentricity:    0.0354406
Arg of perigee:   017.7762 deg
Mean anomaly:     343.4917 deg
Mean motion:   14.28234870 rev/day
Decay rate:       1.65e-06 rev/day^2
Epoch rev:           53291
Checksum:              318

Satellite: AO-40
Catalog number: 26609
Epoch time:      09007.26037294
Element set:     176
Inclination:      008.4375 deg
RA of node:       039.3531 deg
Eccentricity:    0.7942732
Arg of perigee:   163.0809 deg
Mean anomaly:     260.0040 deg
Mean motion:   01.25583696 rev/day
Decay rate:        4.5e-07 rev/day^2
Epoch rev:            3760
Checksum:              295

Satellite: VO-52
Catalog number: 28650
Epoch time:      09007.37781230
Element set:     123
Inclination:      097.7659 deg
RA of node:       074.1046 deg
Eccentricity:    0.0026966
Arg of perigee:   192.2115 deg
Mean anomaly:     167.8399 deg
Mean motion:   14.81540118 rev/day
Decay rate:       -7.2e-07 rev/day^2
Epoch rev:           19883
Checksum:              322

Satellite: PO-63
Catalog number: 29712
Epoch time:      09008.30966953
Element set:     129
Inclination:      097.8516 deg
RA of node:       068.3832 deg
Eccentricity:    0.0015270
Arg of perigee:   076.1512 deg
Mean anomaly:     284.1397 deg
Mean motion:   14.80403431 rev/day
Decay rate:       5.27e-06 rev/day^2
Epoch rev:           10781
Checksum:              306

/EX
SB KEPS @ AMSAT  $ORB09008.D
Orbital Elements  09008.MICROS

HR AMSAT ORBITAL ELEMENTS FOR THE MICROSATS
FROM WA5QGD FORT WORTH,TX January 8, 2009
Send Subscribe/unsubscribe to KEPS at 
http://www.amsat.org/mailman/listinfo/keps
BID: ORB09008.D
TO ALL RADIO AMATEURS BT

Satellite: AO-16
Catalog number: 20439
Epoch time:      09008.59463749
Element set:     505
Inclination:      098.2578 deg
RA of node:       344.4448 deg
Eccentricity:    0.0010048
Arg of perigee:   288.3877 deg
Mean anomaly:     071.6223 deg
Mean motion:   14.31813080 rev/day
Decay rate:        2.1e-07 rev/day^2
Epoch rev:           99031
Checksum:              311

Satellite: LO-19
Catalog number: 20442
Epoch time:      09006.58172738
Element set:    0428
Inclination:      098.2220 deg
RA of node:       350.3962 deg
Eccentricity:    0.0011048
Arg of perigee:   290.7968 deg
Mean anomaly:     069.2037 deg
Mean motion:   14.32049877 rev/day
Decay rate:        4.9e-07 rev/day^2
Epoch rev:           99018
Checksum:              321

Satellite: AO-27
Catalog number: 22825
Epoch time:      09008.04121627
Element set:     147
Inclination:      098.4154 deg
RA of node:       326.6950 deg
Eccentricity:    0.0008839
Arg of perigee:   022.2426 deg
Mean anomaly:     337.9170 deg
Mean motion:   14.29256406 rev/day
Decay rate:        9.9e-07 rev/day^2
Epoch rev:           79703
Checksum:              312

Satellite: IO-26
Catalog number: 22826
Epoch time:      09008.89946031
Element set:     866
Inclination:      098.4088 deg
RA of node:       328.3428 deg
Eccentricity:    0.0009392
Arg of perigee:   015.9583 deg
Mean anomaly:     344.1903 deg
Mean motion:   14.29506541 rev/day
Decay rate:        1.3e-07 rev/day^2
Epoch rev:           79725
Checksum:              332

